Change the Weather History Date:

Wednesday, January 15, 2014

  Actual Average (KDMN) Record (KDMN)
Temperature  
Mean Temperature 42 °F 42 °F  
Max Temperature 60 °F 57 °F 70 °F (2003)
Min Temperature 24 °F 27 °F 4 °F (1962)
Degree Days  
Heating Degree Days 23    
Moisture  
Dew Point 7 °F    
Average Humidity 27    
Maximum Humidity 46    
Minimum Humidity 12    
Precipitation  
Precipitation 0.00 in 0.02 in 0.27 in (1955)
Month to date precipitation 0.27  
Year to date precipitation 0.27  
Sea Level Pressure  
Sea Level Pressure 30.34 in    
Wind  
Wind Speed 6 mph (NW)    
Max Wind Speed 14 mph    
Max Gust Speed 17 mph    
Visibility 10 miles    
Events      
T = Trace of Precipitation, MM = Missing Value Source: NWS Daily Summary

Daily Weather History Graph

Daily Weather History Graph

Search for Another Location

Airport or City:

Trip Planner

Search our weather history database for the weather conditions in past years. The results will help you decide how hot, cold, wet, or windy it might be!

Date:

Astronomy

Jan. 15, 2014 Rise Set
Actual Time 7:14 AM MST 5:29 PM MST
Civil Twilight 6:48 AM MST 5:56 PM MST
Nautical Twilight 6:17 AM MST 6:26 PM MST
Astronomical Twilight 5:48 AM MST 6:56 PM MST
Moon 5:26 PM MST (1/15) 6:35 AM MST (1/15)
Length of Visible Light 11h 08m
Length of Day
10h 14m
Full, 100% of the Moon is Illuminated
Jan 15
Full
Jan 15
Full
Jan 23
Last Quarter
Jan 30
New
Feb 6
First Quarter

Hourly Weather History & Observations

Time (MST) Temp. Windchill Dew Point Humidity Pressure Visibility Wind Dir Wind Speed Gust Speed Precip Events Conditions
12:15 AM 37.4 °F - 5.0 °F 26% 30.40 in 10.0 mi Calm Calm - N/A   Clear
12:35 AM 32.0 °F - 5.0 °F 32% 30.41 in 10.0 mi Calm Calm - N/A   Clear
12:55 AM 28.4 °F 23.3 °F 5.0 °F 37% 30.41 in 10.0 mi WNW 4.6 mph - N/A   Clear
1:15 AM 26.6 °F 22.6 °F 6.8 °F 43% 30.41 in 10.0 mi NW 3.5 mph - N/A   Clear
1:35 AM 24.8 °F - 6.8 °F 46% 30.42 in 10.0 mi Calm Calm - N/A   Clear
1:55 AM 28.4 °F 20.4 °F 6.8 °F 40% 30.41 in 10.0 mi West 8.1 mph - N/A   Clear
2:15 AM 28.4 °F 20.4 °F 6.8 °F 40% 30.41 in 10.0 mi NNW 8.1 mph - N/A   Clear
2:35 AM 28.4 °F 22.2 °F 6.8 °F 40% 30.42 in 10.0 mi North 5.8 mph - N/A   Clear
2:55 AM 24.8 °F 14.6 °F 6.8 °F 46% 30.42 in 10.0 mi NNW 10.4 mph - N/A   Clear
3:15 AM 26.6 °F 17.5 °F 6.8 °F 43% 30.41 in 10.0 mi North 9.2 mph - N/A   Clear
3:35 AM 26.6 °F 16.2 °F 6.8 °F 43% 30.41 in 10.0 mi North 11.5 mph - N/A   Clear
3:55 AM 32.0 °F 23.6 °F 6.8 °F 35% 30.41 in 10.0 mi North 10.4 mph - N/A   Clear
4:15 AM 30.2 °F 20.2 °F 8.6 °F 40% 30.42 in 10.0 mi North 12.7 mph - N/A   Clear
4:35 AM 32.0 °F 24.2 °F 6.8 °F 35% 30.41 in 10.0 mi North 9.2 mph - N/A   Clear
4:55 AM 28.4 °F 18.5 °F 6.8 °F 40% 30.40 in 10.0 mi North 11.5 mph - N/A   Clear
5:15 AM 28.4 °F 20.4 °F 6.8 °F 40% 30.39 in 10.0 mi NW 8.1 mph - N/A   Clear
5:35 AM 26.6 °F 18.2 °F 6.8 °F 43% 30.39 in 10.0 mi NW 8.1 mph - N/A   Clear
5:55 AM 24.8 °F 17.9 °F 6.8 °F 46% 30.40 in 10.0 mi NW 5.8 mph - N/A   Clear
6:15 AM 26.6 °F 18.2 °F 6.8 °F 43% 30.40 in 10.0 mi NNW 8.1 mph - N/A   Clear
6:35 AM 24.8 °F 16.1 °F 6.8 °F 46% 30.40 in 10.0 mi North 8.1 mph - N/A   Clear
6:55 AM 26.6 °F - 6.8 °F 43% 30.40 in 10.0 mi Calm Calm - N/A   Clear
7:15 AM 26.6 °F 17.5 °F 6.8 °F 43% 30.40 in 10.0 mi NNW 9.2 mph - N/A   Clear
7:35 AM 26.6 °F 18.2 °F 6.8 °F 43% 30.40 in 10.0 mi WNW 8.1 mph - N/A   Clear
7:55 AM 28.4 °F 22.2 °F 6.8 °F 40% 30.41 in 10.0 mi North 5.8 mph - N/A   Clear
8:15 AM 33.8 °F 29.6 °F 8.6 °F 35% 30.43 in 10.0 mi North 4.6 mph - N/A   Clear
8:35 AM 37.4 °F 31.4 °F 8.6 °F 30% 30.43 in 10.0 mi North 8.1 mph - N/A   Clear
8:55 AM 42.8 °F 39.3 °F 8.6 °F 25% 30.44 in 10.0 mi NNW 5.8 mph - N/A   Clear
9:15 AM 46.4 °F - 6.8 °F 20% 30.45 in 10.0 mi Calm Calm - N/A   Clear
9:35 AM 48.2 °F - 6.8 °F 19% 30.45 in 10.0 mi West 3.5 mph - N/A   Clear
9:55 AM 50.0 °F - 6.8 °F 17% 30.45 in 10.0 mi WSW 5.8 mph - N/A   Clear
10:15 AM 50.0 °F - 6.8 °F 17% 30.44 in 10.0 mi West 5.8 mph - N/A   Clear
10:35 AM 51.8 °F - 6.8 °F 16% 30.43 in 10.0 mi West 3.5 mph - N/A   Clear
10:55 AM 53.6 °F - 6.8 °F 15% 30.42 in 10.0 mi WSW 4.6 mph - N/A   Clear
11:15 AM 55.4 °F - 6.8 °F 14% 30.41 in 10.0 mi West 4.6 mph - N/A   Clear
11:35 AM 55.4 °F - 6.8 °F 14% 30.39 in 10.0 mi West 5.8 mph - N/A   Clear
11:55 AM 55.4 °F - 6.8 °F 14% 30.37 in 10.0 mi SW 5.8 mph - N/A   Clear
12:15 PM 57.2 °F - 6.8 °F 13% 30.36 in 10.0 mi West 3.5 mph - N/A   Clear
12:35 PM 57.2 °F - 6.8 °F 13% 30.34 in 10.0 mi WSW 8.1 mph - N/A   Clear
12:55 PM 57.2 °F - 6.8 °F 13% 30.32 in 10.0 mi WSW 5.8 mph - N/A   Clear
1:15 PM 59.0 °F - 6.8 °F 13% 30.31 in 10.0 mi West 10.4 mph - N/A   Clear
1:35 PM 59.0 °F - 6.8 °F 13% 30.30 in 10.0 mi WSW 4.6 mph - N/A   Clear
1:55 PM 59.0 °F - 6.8 °F 13% 30.29 in 10.0 mi West 8.1 mph - N/A   Clear
2:15 PM 59.0 °F - 8.6 °F 14% 30.28 in 10.0 mi WNW 11.5 mph 17.3 mph N/A   Clear
2:35 PM 59.0 °F - 6.8 °F 13% 30.28 in 10.0 mi WNW 6.9 mph - N/A   Clear
2:55 PM 59.0 °F - 6.8 °F 13% 30.27 in 10.0 mi West 5.8 mph - N/A   Clear
3:15 PM 60.8 °F - 6.8 °F 12% 30.27 in 10.0 mi NW 9.2 mph - N/A   Clear
3:35 PM 59.0 °F - 6.8 °F 13% 30.27 in 10.0 mi WNW 12.7 mph 16.1 mph N/A   Clear
3:55 PM 59.0 °F - 6.8 °F 13% 30.26 in 10.0 mi WNW 12.7 mph - N/A   Clear
4:15 PM 59.0 °F - 6.8 °F 13% 30.26 in 10.0 mi WNW 13.8 mph - N/A   Clear
4:35 PM 59.0 °F - 6.8 °F 13% 30.26 in 10.0 mi WNW 11.5 mph - N/A   Clear
4:55 PM 57.2 °F - 8.6 °F 14% 30.26 in 10.0 mi West 6.9 mph - N/A   Clear
5:15 PM 55.4 °F - 8.6 °F 15% 30.26 in 10.0 mi WNW 10.4 mph 16.1 mph N/A   Clear
5:35 PM 51.8 °F - 8.6 °F 18% 30.25 in 10.0 mi WNW 12.7 mph - N/A   Clear
5:55 PM 48.2 °F - 6.8 °F 19% 30.25 in 10.0 mi NW 11.5 mph - N/A   Clear
6:15 PM 44.6 °F 39.2 °F 6.8 °F 21% 30.25 in 10.0 mi NW 10.4 mph - N/A   Clear
6:35 PM 46.4 °F 41.5 °F 8.6 °F 22% 30.25 in 10.0 mi NW 10.4 mph - N/A   Clear
6:55 PM 44.6 °F 40.7 °F 8.6 °F 23% 30.25 in 10.0 mi NNW 6.9 mph - N/A   Clear
7:15 PM 46.4 °F 40.7 °F 8.6 °F 22% 30.25 in 10.0 mi NW 12.7 mph - N/A   Clear
7:35 PM 44.6 °F 38.4 °F 8.6 °F 23% 30.25 in 10.0 mi NNW 12.7 mph - N/A   Clear
7:55 PM 44.6 °F 39.2 °F 8.6 °F 23% 30.25 in 10.0 mi NNW 10.4 mph - N/A   Clear
8:15 PM 41.0 °F 33.9 °F 8.6 °F 26% 30.24 in 10.0 mi NNW 12.7 mph - N/A   Clear
8:35 PM 42.8 °F 35.8 °F 8.6 °F 25% 30.23 in 10.0 mi NW 13.8 mph - N/A   Clear
8:55 PM 44.6 °F 38.4 °F 8.6 °F 23% 30.24 in 10.0 mi NW 12.7 mph - N/A   Clear
9:15 PM 41.0 °F 34.3 °F 8.6 °F 26% 30.24 in 10.0 mi NNW 11.5 mph - N/A   Clear
9:35 PM 41.0 °F 34.3 °F 8.6 °F 26% 30.23 in 10.0 mi North 11.5 mph - N/A   Clear
9:55 PM 39.2 °F 33.0 °F 8.6 °F 28% 30.23 in 10.0 mi North 9.2 mph - N/A   Clear
10:15 PM 37.4 °F 31.4 °F 8.6 °F 30% 30.23 in 10.0 mi North 8.1 mph - N/A   Clear
10:35 PM 39.2 °F 37.0 °F 8.6 °F 28% 30.23 in 10.0 mi NW 3.5 mph - N/A   Clear
10:55 PM 39.2 °F 33.6 °F 8.6 °F 28% 30.23 in 10.0 mi NNW 8.1 mph - N/A   Clear
11:15 PM 42.8 °F 37.5 °F 8.6 °F 25% 30.23 in 10.0 mi NNW 9.2 mph - N/A   Clear
11:35 PM 39.2 °F 33.0 °F 8.6 °F 28% 30.22 in 10.0 mi North 9.2 mph - N/A   Clear
11:55 PM 37.4 °F 29.8 °F 8.6 °F 30% 30.22 in 10.0 mi NNW 11.5 mph - N/A   Clear